Location: *
(53.9002°N, 27.5624°E)
Time: 15:22:12
(UTC+00:00)

Cosmos 1607 - Pass Details

Date: 12 November 2019
Orbit: 928 x 974 km, 65.0° (Epoch: 14 December)

Event Time Altitude Azimuth Distance (km) Brightness Sun altitude
Rises 15:17:41 0° 313° (NW) 3,598 7.4 -9.1°
Reaches altitude 10° 15:20:13 10° 316° (NW) 2,656 6.7 -9.4°
Maximum altitude 15:26:25 72° 41° (NE) 992 3.9 -10.3°
Drops below altitude 10° 15:32:40 10° 126° (SE) 2,675 5.9 -11.2°
Sets 15:35:14 0° 129° (SE) 3,625 6.6 -11.6°
